Weather in Austin

United States     30°24′43″N   97°43′08″W
temp.,
°C
wind,
m/s
gust,
m/s
humid.,
%
clouds,
%
prec.,
mm/h
press.,
hPa
HPBL,
m
28 may, sat
sat2801:00+23se49500 0.0 1013191
04:00+22sse36800 0.0 1012126
07:00+23sse410890 0.0 1012315
10:00+27s79680 0.0 1013833
13:00+33ssw68340 0.0 10121805
16:00+35s67290 0.0 10081811
19:00+34s68300 0.0 1006981
22:00+29sse815370 0.0 1008643
29 may, sun
sun2901:00+25s7156672 0.0 1008520
04:00+23s716823 0.0 1007519
07:00+22ssw615871 0.0 1008568
10:00+27s811580 0.0 1009875
13:00+34s810300 0.0 10071568
16:00+37s89224 0.0 10042425
19:00+33sse1011295 0.0 10041417
22:00+27sse1015510 0.0 1006747
30 may, mon
mon3001:00+23sse816833 0.0 1008755
04:00+23s101676100 0.0 10071020
07:00+24s91471100 0.0 10071121
10:00+26s9126851 0.2 10091295
13:00+34s811340 0.2 10072154
16:00+36sse910270 0.0 10052626
19:00+33se1012410 0.0 10051807
22:00+27sse914630 0.0 1009910
31 may, tue
tue3101:00+24sse8158466 0.0 1010875
04:00+24sse81380100 0.1 1010999
07:00+24s61183100 0.2 1011933
10:00+26s6975100 0.2 10121003
13:00+34sse68380 0.3 10112340
16:00+37se77260 0.0 10093112
19:00+35se77301 0.0 10081996
22:00+29se913500 0.0 10111036
1 june, wed
wed101:00+24sse713760 0.0 1013682
04:00+23sse5109164 0.0 1014563
07:00+23sse4890100 0.0 1015522
10:00+27s5668100 0.1 10151066
13:00+32sse454492 0.1 10142121
16:00+32s354035 0.1 10121309
19:00+30se574674 0.1 1011652
22:00+28se612540 0.0 1012558